Flag Weather past 2 weeks in Fort Wayne, Indiana, U.S.A.

Now
30 °F

More clouds than sun.


Feels Like: 19 °F
Forecast: 24 / 33 °F
Wind: 14 mph from West

Location: Fort Wayne International Airport

Current Time: Nov 27, 2014 at 11:28:58 AM

Latest Report: Nov 27, 2014 at 10:54 AM


Visibility: 8 mi

Pressure: 30.28 "Hg

Humidity: 82%

Dew point: 25 °F

Location of Fort WayneLocation

Historic Weather in Fort Wayne — Graph

°F

Fort Wayne temperature yesterday

Maximum temperature yesterday: 29 °F (at 1:54 PM)
Minimum temperature yesterday: 25 °F (at 1:54 AM)
Average temperature yesterday: 27 °F

Past Weeks' High & Low Weather Summary

 TemperatureHumidityPressure
High56 °F (Nov 23, 1:54 PM)97% (Nov 23, 9:54 PM)30.55 "Hg (Nov 23, 9:54 PM)
Low9 °F (Nov 18, 3:54 AM)52% (Nov 15, 1:54 PM)29.10 "Hg (Nov 24, 12:54 AM)
Average29 °F75%30.08 "Hg
* Reported Nov 12 9:54 AM — Nov 27 9:54 AM, Fort Wayne, Weather by CustomWeather, © 2014

Note: Actual official high and low records may vary slightly from our data, if they occured in-between our weather recording intervals... More about our weather records

Advertising

Fort Wayne weather history for previous 24 hours

 ConditionsComfort  
Time TempWeatherWind HumidityBarometerVisibility
9:54 AM
Nov 27
31 °FPartly sunny.10 mph79%30.26 "Hg8 mi
8:54 AM28 °FBroken clouds.9 mph81%30.25 "Hg8 mi
7:54 AM26 °FPartly sunny.8 mph84%30.24 "Hg7 mi
6:54 AM27 °FOvercast.7 mph81%30.22 "Hg8 mi
5:54 AM27 °FOvercast.7 mph81%30.20 "Hg8 mi
4:54 AM28 °FMostly cloudy.5 mph81%30.18 "Hg10 mi
3:54 AM29 °FOvercast.10 mph79%30.16 "Hg8 mi
2:54 AM29 °FOvercast.8 mph79%30.16 "Hg8 mi
1:54 AM28 °FOvercast.7 mph78%30.15 "Hg8 mi
12:54 AM28 °FOvercast.8 mph78%30.14 "Hg8 mi
11:54 PM
Nov 26
28 °FOvercast.8 mph78%30.14 "Hg10 mi
10:54 PM29 °FOvercast.7 mph72%30.14 "Hg10 mi
9:54 PM29 °FOvercast.5 mph75%30.13 "Hg10 mi
8:54 PM29 °FOvercast.No wind75%30.12 "Hg10 mi
7:54 PM29 °FOvercast.No wind72%30.12 "Hg10 mi
6:54 PM29 °FOvercast.3 mph69%30.12 "Hg10 mi
5:54 PM28 °FOvercast.No wind72%30.12 "Hg10 mi
4:54 PM29 °FOvercast.3 mph69%30.13 "Hg9 mi
3:54 PM29 °FOvercast.3 mph72%30.13 "Hg10 mi
2:54 PM29 °FOvercast.No wind72%30.13 "Hg10 mi
1:54 PM29 °FOvercast.3 mph72%30.14 "Hg10 mi
12:54 PM28 °FOvercast.8 mph72%30.14 "Hg10 mi
11:54 AM28 °FLight snow. Overcast.5 mph75%30.17 "Hg9 mi
Weather by CustomWeather, © 2014

See weather overviewHow to use our weather pages